Location: Bois de la Silve
(44.4667°N, 6.7833°E)
Time: 04:39:12
(UTC+00:00)

Abrixas rocket - Pass Details

Date: 14 July 2020
Orbit: 339 x 347 km, 48.4° (Epoch: 06 August)

Event Time Altitude Azimuth Distance (km) Brightness Sun altitude
Exits shadow 01:34:32 16° 303° (WNW) 993 4.2 -18.8°
Maximum altitude 01:36:33 43° 12° (NNE) 487 3.0 -18.6°
Drops below altitude 10° 01:39:18 10° 86° (E) 1,281 5.1 -18.4°
Sets 01:41:22 0° 94° (E) 2,118 6.2 -18.2°
